Location: Igon
(43.1667°N, 0.2333°W)
Time: 03:51:33
(UTC+00:00)

SKYMED 3 - Pass Details

Date: 17 April 2021
Orbit: 621 x 624 km, 97.9° (Epoch: 18 May)

Event Time Altitude Azimuth Distance (km) Brightness Sun altitude
Rises 03:53:24 0° 120° (ESE) 2,898 8.4 -14.6°
Reaches altitude 10° 03:56:26 10° 97° (E) 1,996 8.0 -14.2°
Maximum altitude 03:58:50 15° 63° (ENE) 1,701 8.1 -13.8°
Drops below altitude 10° 04:01:16 10° 28° (NNE) 2,004 8.1 -13.4°
Sets 04:04:18 0° 6° (N) 2,916 8.5 -12.9°
